Simultaneous Nadir Overpasses (SNOs) Predictions

Prediction of SNOs between FY3D and TERRA Satellite Orbit:

Table of predicted SNOs for the next 14.0 days since TLE Epoch: 12/24/2022
Index Date (FY3D) Time (FY3D) Lat,Lon (FY3D) SZA (FY3D ) Date (TERRA) Time (TERRA) Lat,Lon (TERRA) SZA (TERRA ) Distance(km) Time Diff (sec)
1 12/25/2022 12:49:08 -72.63, 167.43 84.09 12/25/2022 12:50:02 -72.64, 167.53 84.07 3.64 54
2 12/25/2022 13:39:53 72.52, -25.05 95.82 12/25/2022 13:39:26 72.53, -25.02 95.82 1.48 27
3 12/28/2022 00:53:31 72.97, 165.67 96.17 12/28/2022 00:54:41 72.86, 166.73 96.05 36.86 70
4 12/28/2022 01:44:08 -72.57, -26.18 84.24 12/28/2022 01:44:10 -72.57, -26.15 84.24 0.97 2
5 12/28/2022 02:34:49 72.27, 141.73 95.47 12/28/2022 02:33:37 72.30, 141.01 95.49 24.61 72
6 12/30/2022 13:48:25 72.63, -27.33 95.68 12/30/2022 13:48:52 72.60, -27.29 95.65 2.67 27
7 12/30/2022 14:39:08 -72.53, 140.19 84.43 12/30/2022 14:38:17 -72.53, 140.23 84.43 1.38 51
8 01/02/2023 01:52:39 -72.68, -28.46 84.47 01/02/2023 01:53:34 -72.66, -28.40 84.49 2.89 55
9 01/02/2023 02:43:23 72.54, 139.13 95.40 01/02/2023 02:42:58 72.55, 139.06 95.40 2.48 25
10 01/04/2023 13:57:01 73.00, -30.19 95.63 01/04/2023 13:58:11 72.92, -29.09 95.53 36.91 70
11 01/04/2023 14:47:38 -72.59, 138.00 84.80 01/04/2023 14:47:41 -72.58, 137.92 84.81 2.85 3
12 01/04/2023 15:38:19 72.31, -54.12 94.92 01/04/2023 15:37:07 72.36, -54.82 94.97 24.36 72
13 01/07/2023 02:51:55 72.68, 136.78 95.01 01/07/2023 02:52:21 72.66, 136.88 94.99 3.51 26
14 01/07/2023 03:42:38 -72.56, -55.67 85.12 01/07/2023 03:41:47 -72.54, -55.70 85.15 2.99 51



Historial Predications of SNOs between FY3D and TERRA
